Time,TemperatureF,DewpointF,PressureIn,WindDirection,WindDirectionDegrees,WindSpeedMPH,WindSpeedGustMPH,Humidity,HourlyPrecipIn,Conditions,Clouds,dailyrainin,SolarRadiationWatts/m^2,SoftwareType,DateUTC
2013-06-05 00:14:00,56.8,53.0,30.05,NNE,13,0.0,0.0,86,0.00,,,0.00,0,weatherlink.com 1.10,2013-06-05 04:14:00,
2013-06-05 00:29:00,56.6,53.0,30.05,NNE,13,0.0,0.0,86,0.00,,,0.00,0,weatherlink.com 1.10,2013-06-05 04:29:00,
2013-06-05 00:44:00,56.5,52.0,30.05,NNE,13,0.0,0.0,86,0.00,,,0.00,0,weatherlink.com 1.10,2013-06-05 04:44:00,
2013-06-05 00:59:00,56.6,52.0,30.05,NNE,13,0.0,0.0,83,0.00,,,0.00,0,weatherlink.com 1.10,2013-06-05 04:59:00,
2013-06-05 01:14:00,57.0,51.0,30.05,NNE,13,0.0,1.0,81,0.00,,,0.00,0,weatherlink.com 1.10,2013-06-05 05:14:00,
2013-06-05 01:29:00,57.4,51.0,30.05,NNE,13,0.0,0.0,78,0.00,,,0.00,0,weatherlink.com 1.10,2013-06-05 05:29:00,
2013-06-05 01:44:00,57.7,51.0,30.04,NNE,13,0.0,0.0,77,0.00,,,0.00,0,weatherlink.com 1.10,2013-06-05 05:44:00,
2013-06-05 01:59:00,57.9,50.0,30.04,NNE,13,0.0,0.0,75,0.00,,,0.00,0,weatherlink.com 1.10,2013-06-05 05:59:00,
2013-06-05 02:14:00,58.1,50.0,30.04,NNE,13,0.0,0.0,74,0.00,,,0.00,0,weatherlink.com 1.10,2013-06-05 06:14:00,
2013-06-05 02:29:00,58.3,51.0,30.03,NNE,13,0.0,0.0,76,0.00,,,0.00,0,weatherlink.com 1.10,2013-06-05 06:29:00,
2013-06-05 02:44:00,58.2,51.0,30.03,NNE,13,0.0,0.0,78,0.00,,,0.00,0,weatherlink.com 1.10,2013-06-05 06:44:00,
2013-06-05 02:59:00,58.0,51.0,30.03,NNE,13,0.0,0.0,78,0.00,,,0.00,0,weatherlink.com 1.10,2013-06-05 06:59:00,
2013-06-05 03:14:00,57.5,51.0,30.02,NNE,13,0.0,0.0,79,0.00,,,0.00,0,weatherlink.com 1.10,2013-06-05 07:14:00,
2013-06-05 03:29:00,56.9,50.0,30.02,NNE,13,0.0,0.0,79,0.00,,,0.00,0,weatherlink.com 1.10,2013-06-05 07:29:00,
2013-06-05 03:45:00,56.2,49.0,30.02,NNE,13,0.0,0.0,76,0.00,,,0.00,0,weatherlink.com 1.10,2013-06-05 07:45:00,
2013-06-05 04:00:00,56.0,49.0,30.02,NNE,13,0.0,0.0,76,0.00,,,0.00,0,weatherlink.com 1.10,2013-06-05 08:00:00,
2013-06-05 04:15:00,56.0,47.0,30.01,NNE,13,0.0,0.0,73,0.00,,,0.00,0,weatherlink.com 1.10,2013-06-05 08:15:00,
2013-06-05 04:30:00,56.3,51.0,30.01,NNE,13,0.0,0.0,81,0.00,,,0.00,0,weatherlink.com 1.10,2013-06-05 08:30:00,
2013-06-05 04:45:00,56.0,51.0,30.01,NNE,13,0.0,0.0,83,0.00,,,0.00,0,weatherlink.com 1.10,2013-06-05 08:45:00,
2013-06-05 05:00:00,55.4,50.0,30.02,NNE,13,0.0,1.0,81,0.00,,,0.00,0,weatherlink.com 1.10,2013-06-05 09:00:00,
2013-06-05 05:15:00,55.3,50.0,30.02,NNE,13,0.0,0.0,83,0.00,,,0.00,0,weatherlink.com 1.10,2013-06-05 09:15:00,
2013-06-05 05:30:00,54.8,49.0,30.02,NNE,13,0.0,0.0,82,0.00,,,0.00,0,weatherlink.com 1.10,2013-06-05 09:30:00,
2013-06-05 05:45:00,54.7,49.0,30.02,NNE,13,0.0,0.0,82,0.00,,,0.00,0,weatherlink.com 1.10,2013-06-05 09:45:00,
2013-06-05 06:00:00,54.6,49.0,30.03,NNE,13,0.0,0.0,82,0.00,,,0.00,0,weatherlink.com 1.10,2013-06-05 10:00:00,
2013-06-05 06:15:00,54.6,49.0,30.03,NNE,13,0.0,0.0,82,0.00,,,0.00,0,weatherlink.com 1.10,2013-06-05 10:15:00,
2013-06-05 06:30:00,54.6,50.0,30.03,NNE,13,0.0,0.0,84,0.00,,,0.00,7,weatherlink.com 1.10,2013-06-05 10:30:00,
2013-06-05 06:45:00,54.5,50.0,30.03,NNE,13,0.0,0.0,84,0.00,,,0.00,16,weatherlink.com 1.10,2013-06-05 10:45:00,
2013-06-05 07:00:00,54.6,50.0,30.04,NNE,13,0.0,0.0,85,0.00,,,0.00,26,weatherlink.com 1.10,2013-06-05 11:00:00,
2013-06-05 07:15:00,54.4,50.0,30.04,NNE,13,0.0,0.0,84,0.00,,,0.00,40,weatherlink.com 1.10,2013-06-05 11:15:00,
2013-06-05 07:30:00,54.7,50.0,30.04,NNE,13,0.0,0.0,85,0.00,,,0.00,54,weatherlink.com 1.10,2013-06-05 11:30:00,
2013-06-05 07:45:00,55.1,51.0,30.03,NNE,13,0.0,0.0,86,0.00,,,0.00,84,weatherlink.com 1.10,2013-06-05 11:45:00,
2013-06-05 08:00:00,56.2,52.0,30.03,NNE,13,0.0,1.0,85,0.00,,,0.00,120,weatherlink.com 1.10,2013-06-05 12:00:00,
2013-06-05 08:15:00,57.6,53.0,30.04,NNE,13,0.0,1.0,84,0.00,,,0.00,134,weatherlink.com 1.10,2013-06-05 12:15:00,
2013-06-05 08:30:00,58.6,52.0,30.03,NNE,13,0.0,2.0,80,0.00,,,0.00,139,weatherlink.com 1.10,2013-06-05 12:30:00,
2013-06-05 08:45:00,59.4,54.0,30.03,NNE,13,0.0,1.0,83,0.00,,,0.00,135,weatherlink.com 1.10,2013-06-05 12:45:00,
2013-06-05 09:00:00,60.7,54.0,30.00,North,360,0.0,4.0,79,0.00,,,0.00,381,weatherlink.com 1.10,2013-06-05 13:00:00,
2013-06-05 09:15:00,62.9,55.0,30.01,North,360,0.0,4.0,75,0.00,,,0.00,427,weatherlink.com 1.10,2013-06-05 13:15:00,
2013-06-05 09:30:00,64.9,56.0,30.00,NNW,338,1.0,5.0,72,0.00,,,0.00,503,weatherlink.com 1.10,2013-06-05 13:30:00,
2013-06-05 09:45:00,66.5,57.0,30.00,NNE,30,0.0,2.0,71,0.00,,,0.00,559,weatherlink.com 1.10,2013-06-05 13:45:00,
2013-06-05 10:00:00,68.6,56.0,30.00,NNE,26,0.0,2.0,64,0.00,,,0.00,596,weatherlink.com 1.10,2013-06-05 14:00:00,
2013-06-05 10:15:00,70.0,58.0,29.99,NE,40,0.0,4.0,66,0.00,,,0.00,636,weatherlink.com 1.10,2013-06-05 14:15:00,
2013-06-05 10:30:00,71.4,59.0,29.98,SSW,206,0.0,4.0,65,0.00,,,0.00,621,weatherlink.com 1.10,2013-06-05 14:30:00,
2013-06-05 10:45:00,72.6,60.0,29.99,West,265,0.0,2.0,65,0.00,,,0.00,721,weatherlink.com 1.10,2013-06-05 14:45:00,
2013-06-05 11:00:00,73.4,61.0,29.98,North,350,0.0,2.0,65,0.00,,,0.00,722,weatherlink.com 1.10,2013-06-05 15:00:00,
2013-06-05 11:15:00,74.6,58.0,29.99,North,350,3.0,3.0,56,0.00,,,0.00,780,weatherlink.com 1.10,2013-06-05 15:15:00,
2013-06-05 11:30:00,75.6,61.0,29.99,North,355,0.0,4.0,60,0.00,,,0.00,803,weatherlink.com 1.10,2013-06-05 15:30:00,
2013-06-05 11:45:00,75.8,59.0,29.99,South,184,2.0,5.0,56,0.00,,,0.00,838,weatherlink.com 1.10,2013-06-05 15:45:00,
2013-06-05 12:00:00,76.3,61.0,29.98,ESE,106,1.0,5.0,60,0.00,,,0.00,893,weatherlink.com 1.10,2013-06-05 16:00:00,
2013-06-05 12:15:00,77.3,60.0,29.98,WSW,248,2.0,3.0,55,0.00,,,0.00,889,weatherlink.com 1.10,2013-06-05 16:15:00,
2013-06-05 12:30:00,77.3,61.0,29.98,SSE,168,1.0,7.0,58,0.00,,,0.00,930,weatherlink.com 1.10,2013-06-05 16:30:00,
2013-06-05 12:45:00,77.8,60.0,29.97,South,191,1.0,4.0,54,0.00,,,0.00,988,weatherlink.com 1.10,2013-06-05 16:45:00,
2013-06-05 13:00:00,77.7,60.0,29.97,SSE,147,1.0,5.0,54,0.00,,,0.00,1114,weatherlink.com 1.10,2013-06-05 17:00:00,
2013-06-05 13:15:00,78.8,61.0,29.97,South,185,0.0,5.0,55,0.00,,,0.00,485,weatherlink.com 1.10,2013-06-05 17:15:00,
2013-06-05 13:30:00,78.1,61.0,29.96,SW,232,0.0,6.0,56,0.00,,,0.00,408,weatherlink.com 1.10,2013-06-05 17:30:00,
2013-06-05 13:45:00,78.2,59.0,29.96,SSW,195,1.0,5.0,51,0.00,,,0.00,540,weatherlink.com 1.10,2013-06-05 17:45:00,
2013-06-05 14:00:00,77.4,59.0,29.95,SW,236,0.0,5.0,54,0.00,,,0.00,1248,weatherlink.com 1.10,2013-06-05 18:00:00,
2013-06-05 14:15:00,79.4,59.0,29.95,South,173,0.0,4.0,49,0.00,,,0.00,1076,weatherlink.com 1.10,2013-06-05 18:15:00,
2013-06-05 14:30:00,79.2,58.0,29.94,SSE,159,1.0,4.0,48,0.00,,,0.00,352,weatherlink.com 1.10,2013-06-05 18:30:00,
2013-06-05 14:45:00,79.4,63.0,29.94,WSW,256,1.0,5.0,58,0.00,,,0.00,1065,weatherlink.com 1.10,2013-06-05 18:45:00,
2013-06-05 15:00:00,79.4,62.0,29.93,South,181,0.0,6.0,55,0.00,,,0.00,503,weatherlink.com 1.10,2013-06-05 19:00:00,
2013-06-05 15:16:00,79.6,63.0,29.92,South,184,1.0,7.0,58,0.00,,,0.00,835,weatherlink.com 1.10,2013-06-05 19:16:00,
2013-06-05 15:31:00,80.3,60.0,29.92,WSW,238,2.0,5.0,51,0.00,,,0.00,984,weatherlink.com 1.10,2013-06-05 19:31:00,
2013-06-05 15:46:00,81.2,61.0,29.91,SW,215,0.0,6.0,51,0.00,,,0.00,1009,weatherlink.com 1.10,2013-06-05 19:46:00,
2013-06-05 16:01:00,81.2,61.0,29.91,NNW,335,0.0,4.0,50,0.00,,,0.00,322,weatherlink.com 1.10,2013-06-05 20:01:00,
2013-06-05 16:16:00,79.6,61.0,29.90,West,275,0.0,1.0,54,0.00,,,0.00,327,weatherlink.com 1.10,2013-06-05 20:16:00,
2013-06-05 16:31:00,79.5,61.0,29.90,WNW,294,0.0,4.0,53,0.00,,,0.00,575,weatherlink.com 1.10,2013-06-05 20:31:00,
2013-06-05 16:46:00,79.9,59.0,29.89,WNW,295,0.0,2.0,49,0.00,,,0.00,241,weatherlink.com 1.10,2013-06-05 20:46:00,
2013-06-05 17:01:00,79.1,61.0,29.88,WNW,295,0.0,1.0,55,0.00,,,0.00,360,weatherlink.com 1.10,2013-06-05 21:01:00,
2013-06-05 17:16:00,79.4,60.0,29.88,WNW,294,0.0,1.0,52,0.00,,,0.00,490,weatherlink.com 1.10,2013-06-05 21:16:00,
2013-06-05 17:31:00,79.5,62.0,29.87,WNW,294,0.0,2.0,55,0.00,,,0.00,355,weatherlink.com 1.10,2013-06-05 21:31:00,
2013-06-05 18:01:00,78.6,64.0,29.86,WNW,294,0.0,1.0,62,0.00,,,0.00,388,weatherlink.com 1.10,2013-06-05 22:01:00,
2013-06-05 18:16:00,78.9,64.0,29.86,WNW,294,1.0,2.0,60,0.00,,,0.00,406,weatherlink.com 1.10,2013-06-05 22:16:00,
2013-06-05 18:31:00,79.7,63.0,29.86,WNW,294,0.0,2.0,56,0.00,,,0.00,364,weatherlink.com 1.10,2013-06-05 22:31:00,
2013-06-05 18:46:00,79.1,63.0,29.85,WNW,294,0.0,2.0,58,0.00,,,0.00,366,weatherlink.com 1.10,2013-06-05 22:46:00,
2013-06-05 19:01:00,78.7,64.0,29.85,WNW,294,0.0,1.0,61,0.00,,,0.00,288,weatherlink.com 1.10,2013-06-05 23:01:00,
2013-06-05 19:16:00,78.2,64.0,29.84,WNW,295,0.0,2.0,61,0.00,,,0.00,227,weatherlink.com 1.10,2013-06-05 23:16:00,
2013-06-05 19:31:00,78.0,62.0,29.84,WNW,294,0.0,0.0,59,0.00,,,0.00,111,weatherlink.com 1.10,2013-06-05 23:31:00,
2013-06-05 19:46:00,77.0,62.0,29.84,WNW,294,0.0,0.0,60,0.00,,,0.00,84,weatherlink.com 1.10,2013-06-05 23:46:00,
2013-06-05 20:01:00,76.0,62.0,29.84,WNW,294,0.0,0.0,62,0.00,,,0.00,91,weatherlink.com 1.10,2013-06-06 00:01:00,
2013-06-05 20:17:00,75.2,63.0,29.84,WNW,294,0.0,0.0,66,0.00,,,0.00,65,weatherlink.com 1.10,2013-06-06 00:17:00,
2013-06-05 20:47:00,73.0,62.0,29.85,WNW,294,0.0,0.0,69,0.00,,,0.00,25,weatherlink.com 1.10,2013-06-06 00:47:00,
2013-06-05 21:01:00,71.9,62.0,29.85,WNW,294,0.0,0.0,70,0.00,,,0.00,5,weatherlink.com 1.10,2013-06-06 01:01:00,
2013-06-05 21:16:00,70.6,61.0,29.85,WNW,294,0.0,0.0,71,0.00,,,0.00,0,weatherlink.com 1.10,2013-06-06 01:16:00,
2013-06-05 21:32:00,69.4,60.0,29.85,WNW,294,0.0,0.0,73,0.00,,,0.00,0,weatherlink.com 1.10,2013-06-06 01:32:00,
2013-06-05 21:47:00,68.5,60.0,29.85,WNW,294,0.0,0.0,75,0.00,,,0.00,0,weatherlink.com 1.10,2013-06-06 01:47:00,
2013-06-05 22:02:00,67.8,60.0,29.85,WNW,294,0.0,0.0,76,0.00,,,0.00,0,weatherlink.com 1.10,2013-06-06 02:02:00,
2013-06-05 22:17:00,67.2,60.0,29.85,WNW,294,0.0,0.0,78,0.00,,,0.00,0,weatherlink.com 1.10,2013-06-06 02:17:00,
2013-06-05 22:32:00,66.8,60.0,29.85,WNW,294,0.0,0.0,79,0.00,,,0.00,0,weatherlink.com 1.10,2013-06-06 02:32:00,
2013-06-05 22:47:00,66.5,60.0,29.85,WNW,294,0.0,0.0,79,0.00,,,0.00,0,weatherlink.com 1.10,2013-06-06 02:47:00,
2013-06-05 23:02:00,66.4,59.0,29.86,WNW,294,0.0,0.0,77,0.00,,,0.00,0,weatherlink.com 1.10,2013-06-06 03:02:00,
2013-06-05 23:17:00,66.7,59.0,29.86,WNW,294,0.0,0.0,76,0.00,,,0.00,0,weatherlink.com 1.10,2013-06-06 03:17:00,
2013-06-05 23:32:00,66.6,60.0,29.86,WNW,294,0.0,0.0,80,0.00,,,0.00,0,weatherlink.com 1.10,2013-06-06 03:32:00,
2013-06-05 23:47:00,66.2,60.0,29.85,WNW,294,0.0,0.0,79,0.00,,,0.00,0,weatherlink.com 1.10,2013-06-06 03:47:00,